EGPH

Edinburgh Airport

Airport
ICAO code
EGPH
IATA Code
EDI
Summary
ICAO Region
EUR
ICAO Territory
Location

Turnhouse, Scotland

Serving
Edinburgh
Elevation
136 ft
Coordinates
55° 56' 57" N , 3° 21' 31" W
KCC
Metar
Observation
EGPH 032320Z 26002KT 7000 FEW026 BKN032 00/M00 Q1025
Station
Edinburgh Airport
Date/Time
2022-12-03 23:20:00
Wind direction
260°
Wind speed
02 kts
Lowest cloud amount
few clouds
Temperature
0°C
Dew point
-0°C
Humidity
100%
QNH
1025 hPa
Weather condition
n/a

Description

Domestic and international airport serving the Scottish City of Edinburgh and the surrounding region.

Climatology

Temperate Marine climate/Oceanic climate (Köppen climate classification Cfb). Moderately cool summer and comparatively warm winter with a temperature range of only 14°C. Prevailing south-westerly winds from the Atlantic Ocean.

Runways

Designator Length Width Surface Rops
8/26 799 46 ASP No/No
12/30 1747 46 ASP Yes/Yes
6/24 2560 46 ASP Yes/Yes

SKYbrary Partners:

Safety knowledge contributed by: